When you browse on this site, cookies collect data to enhance your experience and personalize the content and advertising you see.
Visit our Privacy Policy to learn more. By continuing to use the site, you agree to this use of cookies and data.

Hourly Weather Ababkovo

Today, 14 August, Friday

Time Temperature Precipitation Wind Pressure Humidity
00:00 +7°C° 0 mm 2 mps 740 mmHg 94%
01:00 +7°C° 0 mm 2 mps 741 mmHg 95%
02:00 +7°C° 0 mm 2 mps 741 mmHg 96%
03:00 +7°C° 0 mm 2 mps 741 mmHg 96%
04:00 +7°C° 0 mm 2 mps 741 mmHg 96%
05:00 +7°C° 0 mm 2 mps 741 mmHg 96%
06:00 +9°C° 0 mm 2 mps 741 mmHg 87%
07:00 +12°C° 0 mm 2 mps 741 mmHg 79%
08:00 +14°C° 0 mm 2 mps 742 mmHg 70%
09:00 +15°C° 0 mm 2 mps 742 mmHg 64%
10:00 +16°C° 0 mm 2 mps 742 mmHg 57%
11:00 +18°C° 0 mm 2 mps 741 mmHg 51%
12:00 +18°C° 0 mm 2 mps 741 mmHg 50%
13:00 +18°C° 0 mm 2 mps 741 mmHg 50%
14:00 +19°C° 0 mm 2 mps 741 mmHg 49%
15:00 +19°C° 0 mm 2 mps 741 mmHg 52%
16:00 +19°C° 0 mm 1 mps 741 mmHg 55%
17:00 +19°C° 0 mm 1 mps 741 mmHg 57%
18:00 +16°C° 0 mm 1 mps 741 mmHg 63%
19:00 +15°C° 0 mm 1 mps 741 mmHg 69%
20:00 +13°C° 0 mm 1 mps 741 mmHg 75%
21:00 +12°C° 0 mm 1 mps 741 mmHg 77%
22:00 +12°C° 0 mm 1 mps 741 mmHg 79%
23:00 +11°C° 0 mm 1 mps 741 mmHg 81%

Tomorrow, 15 August, Saturday

Time Temperature Precipitation Wind Pressure Humidity
00:00 +11°C° 0 mm 1 mps 742 mmHg 82%
01:00 +11°C° 0 mm 1 mps 742 mmHg 82%
02:00 +11°C° 0 mm 1 mps 742 mmHg 83%
03:00 +11°C° 0 mm 1 mps 741 mmHg 83%
04:00 +11°C° 0 mm 1 mps 741 mmHg 84%
05:00 +11°C° 0 mm 1 mps 741 mmHg 84%
06:00 +12°C° 0 mm 1 mps 741 mmHg 81%
07:00 +14°C° 0 mm 1 mps 741 mmHg 78%
08:00 +15°C° 0 mm 1 mps 741 mmHg 76%
09:00 +15°C° 0.1 mm 1 mps 741 mmHg 78%
10:00 +16°C° 0.1 mm 1 mps 741 mmHg 81%
11:00 +16°C° 0.1 mm 1 mps 741 mmHg 84%
12:00 +16°C° 0.2 mm 1 mps 741 mmHg 86%
13:00 +16°C° 0.2 mm 1 mps 740 mmHg 88%
14:00 +16°C° 0.2 mm 1 mps 740 mmHg 90%
15:00 +16°C° 0 mm 1 mps 740 mmHg 91%
16:00 +16°C° 0 mm 1 mps 740 mmHg 92%
17:00 +16°C° 0 mm 1 mps 740 mmHg 93%
18:00 +15°C° 0 mm 1 mps 739 mmHg 93%
19:00 +15°C° 0 mm 1 mps 739 mmHg 94%
20:00 +15°C° 0 mm 1 mps 739 mmHg 94%
21:00 +14°C° 0 mm 1 mps 739 mmHg 94%
22:00 +14°C° 0 mm 1 mps 739 mmHg 95%
23:00 +14°C° 0 mm 1 mps 739 mmHg 95%

Day after tomorrow, 16 August, Sunday

Time Temperature Precipitation Wind Pressure Humidity
00:00 +14°C° 0 mm 2 mps 739 mmHg 95%
01:00 +14°C° 0 mm 2 mps 739 mmHg 96%
02:00 +14°C° 0 mm 2 mps 738 mmHg 97%
03:00 +14°C° 0 mm 2 mps 738 mmHg 97%
04:00 +14°C° 0 mm 2 mps 738 mmHg 97%
05:00 +14°C° 0 mm 2 mps 738 mmHg 97%
06:00 +15°C° 0 mm 2 mps 738 mmHg 94%
07:00 +17°C° 0 mm 2 mps 738 mmHg 92%
08:00 +18°C° 0 mm 3 mps 738 mmHg 89%
09:00 +19°C° 0.2 mm 3 mps 738 mmHg 83%
10:00 +21°C° 0.2 mm 3 mps 738 mmHg 78%
11:00 +22°C° 0.2 mm 4 mps 738 mmHg 72%
12:00 +23°C° 0.5 mm 4 mps 738 mmHg 71%
13:00 +23°C° 0.5 mm 4 mps 738 mmHg 70%
14:00 +23°C° 0.5 mm 4 mps 737 mmHg 69%
15:00 +24°C° 0.2 mm 3 mps 737 mmHg 70%
16:00 +24°C° 0.2 mm 3 mps 737 mmHg 70%
17:00 +24°C° 0.2 mm 2 mps 737 mmHg 71%
18:00 +21°C° 0 mm 2 mps 737 mmHg 77%
19:00 +19°C° 0 mm 2 mps 737 mmHg 83%
20:00 +17°C° 0 mm 2 mps 737 mmHg 88%
21:00 +17°C° 0 mm 2 mps 737 mmHg 89%
22:00 +17°C° 0 mm 3 mps 737 mmHg 90%
23:00 +16°C° 0 mm 3 mps 737 mmHg 91%

17 August, Monday

Time Temperature Precipitation Wind Pressure Humidity
00:00 +16°C° 0.1 mm 3 mps 737 mmHg 93%
01:00 +16°C° 0.1 mm 2 mps 737 mmHg 94%
02:00 +16°C° 0.1 mm 2 mps 737 mmHg 95%
03:00 +16°C° 0.3 mm 2 mps 737 mmHg 96%
04:00 +15°C° 0.3 mm 2 mps 737 mmHg 97%
05:00 +15°C° 0.3 mm 2 mps 737 mmHg 97%
06:00 +16°C° 0.3 mm 2 mps 737 mmHg 96%
07:00 +17°C° 0.3 mm 2 mps 737 mmHg 94%
08:00 +18°C° 0.3 mm 2 mps 737 mmHg 92%
09:00 +19°C° 0.2 mm 2 mps 737 mmHg 88%
10:00 +20°C° 0.2 mm 2 mps 737 mmHg 83%
11:00 +21°C° 0.2 mm 3 mps 737 mmHg 79%
12:00 +21°C° 0.5 mm 3 mps 736 mmHg 78%
13:00 +21°C° 0.5 mm 3 mps 736 mmHg 78%
14:00 +21°C° 0.5 mm 3 mps 736 mmHg 77%
15:00 +21°C° 0.2 mm 3 mps 736 mmHg 76%
16:00 +21°C° 0.2 mm 2 mps 736 mmHg 74%
17:00 +21°C° 0.2 mm 2 mps 735 mmHg 72%
18:00 +19°C° 0 mm 2 mps 735 mmHg 76%
19:00 +17°C° 0 mm 2 mps 735 mmHg 79%
20:00 +16°C° 0 mm 2 mps 735 mmHg 83%
21:00 +15°C° 0 mm 1 mps 735 mmHg 83%
22:00 +14°C° 0 mm 1 mps 735 mmHg 82%
23:00 +13°C° 0 mm 1 mps 736 mmHg 82%

18 August, Tuesday

Time Temperature Precipitation Wind Pressure Humidity
00:00 +12°C° 0 mm 1 mps 736 mmHg 84%
01:00 +12°C° 0 mm 1 mps 735 mmHg 87%
02:00 +11°C° 0 mm 1 mps 735 mmHg 89%
03:00 +11°C° 0 mm 1 mps 735 mmHg 89%
04:00 +11°C° 0 mm 1 mps 736 mmHg 88%
05:00 +10°C° 0 mm 1 mps 736 mmHg 88%
06:00 +12°C° 0 mm 1 mps 736 mmHg 79%
07:00 +14°C° 0 mm 1 mps 736 mmHg 70%
08:00 +16°C° 0 mm 1 mps 736 mmHg 61%
09:00 +19°C° 0 mm 1 mps 736 mmHg 57%
10:00 +21°C° 0 mm 1 mps 736 mmHg 52%
11:00 +21°C° 0 mm 0 mps 736 mmHg 47%
12:00 +23°C° 0 mm 1 mps 736 mmHg 45%
13:00 +23°C° 0 mm 1 mps 735 mmHg 43%
14:00 +23°C° 0 mm 1 mps 735 mmHg 41%
15:00 +23°C° 0 mm 1 mps 735 mmHg 47%
16:00 +23°C° 0 mm 1 mps 735 mmHg 53%
17:00 +22°C° 0 mm 1 mps 735 mmHg 59%
18:00 +20°C° 0 mm 1 mps 735 mmHg 65%
19:00 +18°C° 0 mm 1 mps 735 mmHg 71%
20:00 +15°C° 0 mm 1 mps 734 mmHg 77%
21:00 +14°C° 0 mm 1 mps 735 mmHg 78%
22:00 +14°C° 0 mm 1 mps 735 mmHg 79%
23:00 +14°C° 0 mm 1 mps 735 mmHg 80%

19 August, Wednesday

Time Temperature Precipitation Wind Pressure Humidity
00:00 +14°C° 0 mm 1 mps 735 mmHg 81%
01:00 +14°C° 0 mm 1 mps 735 mmHg 82%
02:00 +14°C° 0 mm 1 mps 735 mmHg 82%
03:00 +13°C° 0 mm 1 mps 735 mmHg 86%
04:00 +13°C° 0 mm 1 mps 735 mmHg 90%
05:00 +12°C° 0 mm 1 mps 735 mmHg 94%
06:00 +14°C° 0 mm 1 mps 735 mmHg 88%
07:00 +16°C° 0 mm 1 mps 735 mmHg 81%
08:00 +19°C° 0 mm 1 mps 735 mmHg 75%
09:00 +20°C° 0 mm 2 mps 735 mmHg 66%
10:00 +21°C° 0 mm 2 mps 735 mmHg 57%
11:00 +24°C° 0 mm 2 mps 736 mmHg 48%
12:00 +24°C° 0 mm 2 mps 735 mmHg 46%
13:00 +24°C° 0 mm 2 mps 735 mmHg 45%
14:00 +25°C° 0 mm 2 mps 735 mmHg 43%
15:00 +24°C° 0 mm 1 mps 735 mmHg 49%
16:00 +24°C° 0 mm 1 mps 735 mmHg 55%
17:00 +24°C° 0 mm 1 mps 735 mmHg 61%
18:00 +22°C° 0 mm 1 mps 735 mmHg 67%
19:00 +20°C° 0 mm 1 mps 734 mmHg 73%
20:00 +18°C° 0 mm 1 mps 734 mmHg 80%
21:00 +16°C° 0 mm 1 mps 734 mmHg 82%
22:00 +15°C° 0 mm 1 mps 735 mmHg 85%
23:00 +15°C° 0 mm 1 mps 735 mmHg 88%
Show more